[[{"header":{"parameterUnit":"m.s-1","parameterCategory":2,"la1":30.2991,"la2":30.254,"lo1":-89.0895,"lo2":-89.0444,"dy":0.0017,"dx":0.0017,"nx":28,"ny":28,"refTime":"2023-05-28T21:00:00:Z","depth":"0","parameterNumber":2,"parameterNumberName":"U-component_of_CURRENTS"},"data":[0,0,0,0,0,0,0,0,0,0,0,0,0,0,0,0,0,0,0,0,0,0,0,0,0,0,0,0,0,0,0,0,0,0,0,0,0,0,0,0,0,0,0,0,0,0,0,0,0,0,0,0,0,0,0,0,0,0,0.2892,0.2893,0,0.2936,0.2937,0.2937,0.2988,0.2988,0.2989,0.299,0.3084,0.3085,0.3087,0,0,0,0,0,0,0,0,0,0,0,0,0,0.2868,0.2868,0.2892,0.2893,0.2894,0.2936,0.2937,0.2937,0.2987,0.2989,0.299,0.2991,0.3083,0.3085,0.3087,0,0,0,0,0,0,0,0,0,0,0,0,0,0.289,0.2868,0.2892,0.2925,0.2929,0.2936,0.2937,0.2937,0.2987,0.2989,0.299,0.2991,0.3083,0.3085,0.3087,0.3076,0,0,0.3095,0.3096,0,0,0,0,0,0,0,0,0.2889,0.2891,0.2919,0.2923,0.2927,0.2959,0.2963,0.2987,0.2987,0.2963,0.299,0.2992,0.3047,0.3052,0.3055,0.308,0.3084,0.3095,0.3097,0.3098,0.3099,0,0,0,0,0,0,0,0.2887,0.2889,0.2908,0.292,0.2925,0.2943,0.2948,0.2967,0.2997,0.2965,0.297,0.2977,0.3049,0.3052,0.3057,0.3086,0.3095,0.3097,0.3099,0.31,0.314,0.3139,0,0,0,0,0,0,0.2882,0.2888,0.2907,0.291,0.2913,0.2943,0.2947,0.2946,0.2995,0.3004,0.2975,0.2979,0.3047,0.3054,0.3061,0.307,0.3098,0.31,0.3102,0.314,0.314,0.3139,0,0,0,0,0,0,0.2882,0.2883,0.2905,0.2902,0.2906,0.2942,0.294,0.2946,0.2952,0.3003,0.3013,0.2975,0.3048,0.3057,0.3076,0.3074,0.3101,0.3104,0.3141,0.314,0.3139,0.3077,0,0,0,0,0,0,0.288,0.2882,0.2873,0.2901,0.2906,0.2906,0.2939,0.2946,0.2955,0.296,0.3006,0.3016,0.305,0.3071,0.3078,0.3078,0.3105,0.3141,0.314,0.314,0.3079,0.3074,0.3069,0,0,0,0,0,0.2879,0.2864,0.2872,0.2874,0.2894,0.2906,0.2909,0.2939,0.2954,0.295,0.298,0.3014,0.3072,0.3072,0.308,0.3081,0.3142,0.3141,0.314,0.3081,0.3075,0.3069,0,0,0,0,0,0,0.2847,0.2868,0.2878,0.2869,0.2884,0.2915,0.2914,0.2931,0.2949,0.2956,0.3002,0.3013,0.3035,0.3059,0.3059,0.309,0.3115,0.3115,0.3068,0.3062,0.3057,0.3046,0.3108,0,0,0,0,0,0.2834,0.2828,0.2854,0.2844,0.2851,0.2878,0.2885,0.2904,0.2928,0.2937,0.2966,0.3001,0.3034,0.3048,0.3079,0.3085,0.3113,0.3093,0.3088,0.3084,0.308,0.3116,0.3114,0.3136,0.3136,0.3136,0,0,0.2818,0.2829,0.2826,0.2837,0.2852,0.285,0.2885,0.2892,0.2892,0.2944,0.2947,0.2984,0.3032,0.3049,0.306,0.3069,0.309,0.3082,0.3078,0.3077,0.3115,0.3113,0.3111,0.3135,0.3135,0.3136,0,0,0.2785,0.2794,0.278,0.2788,0.2806,0.2825,0.2824,0.2847,0.2861,0.2867,0.2913,0.2939,0.2977,0.3012,0.3036,0.3018,0.3066,0.3034,0.2996,0.303,0.3029,0.3028,0.305,0.3052,0.3027,0.3027,0.3027,0,0.2766,0.2752,0.2777,0.2767,0.277,0.2809,0.2796,0.2812,0.2836,0.2846,0.2863,0.2923,0.2961,0.2992,0.299,0.3007,0.3032,0.3014,0.3024,0.3023,0.3024,0.3047,0.3049,0.3024,0.3024,0.3024,0.3025,0,0.2726,0.2714,0.2708,0.2709,0.2713,0.2709,0.2738,0.2744,0.2765,0.2787,0.2817,0.2863,0.2903,0.2919,0.295,0.2972,0.2991,0.3016,0.3037,0.3017,0.3043,0.3047,0.3019,0.302,0.3021,0.3022,0,0,0.2679,0.268,0.2675,0.2666,0.2683,0.2682,0.2685,0.2702,0.2706,0.2736,0.2746,0.2799,0.2832,0.2861,0.2905,0.2929,0.2949,0.2967,0.297,0.2985,0.302,0.2983,0.2984,0.298,0.298,0.2981,0.3033,0,0.264,0.2611,0.2622,0.2592,0.2581,0.2614,0.2613,0.2634,0.2663,0.2682,0.274,0.2773,0.2809,0.2835,0.2863,0.2941,0.2958,0.2932,0.304,0.3043,0.301,0.2987,0.2936,0.2975,0.3037,0.3038,0.3039,0,0.259,0.2582,0.2548,0.254,0.2538,0.2527,0.254,0.2546,0.2593,0.2619,0.2662,0.2716,0.2772,0.2801,0.2901,0.2886,0.294,0.2989,0.2993,0.2984,0.3013,0.3007,0.298,0.2869,0.3045,0.3044,0.3044,0,0.2545,0.2523,0.2496,0.2492,0.2495,0.2487,0.2494,0.2526,0.2535,0.259,0.2607,0.2681,0.2726,0.2806,0.2904,0.2913,0.3003,0.3035,0.3045,0.3043,0.3033,0.3028,0.2907,0.3085,0.3085,0.3085,0.3085,0,0.25,0.2473,0.2472,0.2458,0.2428,0.2445,0.2432,0.2452,0.2486,0.2493,0.2575,0.2599,0.273,0.28,0.2889,0.297,0.2995,0.3029,0.3052,0.3007,0.3,0.2931,0.2884,0.3087,0.3087,0.3086,0.3086,0,0.2452,0.2453,0.2419,0.2411,0.2406,0.2386,0.2391,0.2386,0.2427,0.2441,0.2462,0.2551,0.2647,0.2758,0.2891,0.2943,0.2953,0.3051,0.2979,0.299,0.2892,0.2844,0.2707,0.2644,0.3077,0.3077,0.3076,0,0.2422,0.2401,0.238,0.2362,0.2356,0.234,0.2329,0.2357,0.2358,0.2407,0.2409,0.2501,0.2566,0.2732,0.2855,0.2986,0.2905,0.2987,0.2989,0.2857,0.2822,0.2726,0.2677,0.2956,0.2954,0.2953,0.2952,0,0.2368,0.2364,0.2348,0.2312,0.2289,0.2265,0.2256,0.2246,0.228,0.2296,0.2325,0.2383,0.2543,0.2651,0.2807,0.2896,0.2836,0.2965,0.2856,0.2724,0.2586,0.2546,0.294,0.2941,0.2942,0.2943,0.2944,0.2944,0.233,0.2308,0.2291,0.2252,0.2222,0.2186,0.2147,0.2154,0.2146,0.2153,0.2243,0.2307,0.2464,0.269,0.2759,0.2781,0.2758,0.2743,0.2702,0.2621,0.2518,0.2866,0.2871,0.2872,0.2873,0.2873,0.2874,0,0.2281,0.2267,0.2229,0.2174,0.2112,0.2123,0.2085,0.2042,0.201,0.2071,0.211,0.2243,0.236,0.2489,0.2559,0.2507,0.2489,0.2445,0.2301,0.2274,0.2621,0.2572,0.2476,0.2476,0.2477,0.2477,0.2477,0.2477,0.2261,0.2219,0.2198,0.2082,0.2034,0.1938,0.1903,0.186,0.1877,0.1884,0.1934,0.2018,0.209,0.2174,0.2158,0.2191,0.2051,0.2011,0.1965,0.2208,0.2233,0.2256,0.2196,0.2023,0.2022,0.1586,0.1583,0.158]},{"header":{"parameterUnit":"m.s-1","parameterCategory":2,"la1":30.2991,"la2":30.254,"lo1":-89.0895,"lo2":-89.0444,"dy":0.0017,"dx":0.0017,"nx":28,"ny":28,"refTime":"2023-05-28T21:00:00:Z","depth":"0","parameterNumber":3,"parameterNumberName":"V-component_of_CURRENTS"},"data":[0,0,0,0,0,0,0,0,0,0,0,0,0,0,0,0,0,0,0,0,0,0,0,0,0,0,0,0,0,0,0,0,0,0,0,0,0,0,0,0,0,0,0,0,0,0,0,0,0,0,0,0,0,0,0,0,0,0,0.0415,0.0416,0,0.045,0.0451,0.0451,0.0447,0.0447,0.0446,0.0446,0.0427,0.0427,0.0426,0,0,0,0,0,0,0,0,0,0,0,0,0,0.0323,0.0325,0.0415,0.0416,0.0416,0.045,0.0451,0.0451,0.0447,0.0447,0.0446,0.0446,0.0427,0.0427,0.0426,0,0,0,0,0,0,0,0,0,0,0,0,0,0.036,0.0325,0.0415,0.042,0.0421,0.045,0.0451,0.0451,0.0447,0.0447,0.0446,0.0446,0.0427,0.0427,0.0426,0.0436,0,0,0.0426,0.0425,0,0,0,0,0,0,0,0,0.0357,0.0363,0.0419,0.042,0.0421,0.0445,0.0411,0.0444,0.0448,0.0435,0.0446,0.0445,0.043,0.0429,0.0435,0.0436,0.0435,0.0426,0.0425,0.0425,0.0425,0,0,0,0,0,0,0,0.0355,0.0361,0.0427,0.0419,0.0421,0.0413,0.0418,0.0418,0.0433,0.0436,0.0437,0.0444,0.0429,0.0435,0.0434,0.0434,0.0426,0.0425,0.0425,0.0425,0.044,0.0441,0,0,0,0,0,0,0.0357,0.0359,0.0426,0.0428,0.0389,0.0416,0.0421,0.0437,0.0434,0.0434,0.0444,0.0444,0.0436,0.0435,0.0434,0.0454,0.0425,0.0425,0.0425,0.044,0.044,0.0441,0,0,0,0,0,0,0.0355,0.0363,0.0425,0.0395,0.0403,0.0418,0.0436,0.0438,0.0444,0.0441,0.0439,0.0449,0.0436,0.0434,0.0439,0.0452,0.0425,0.0425,0.0439,0.044,0.0441,0.0488,0,0,0,0,0,0,0.0352,0.0362,0.0369,0.0396,0.0405,0.0445,0.0437,0.0439,0.045,0.045,0.0445,0.0442,0.0435,0.044,0.0439,0.0452,0.0425,0.0438,0.0439,0.044,0.0486,0.0491,0.0495,0,0,0,0,0,0.0349,0.0362,0.037,0.0377,0.0416,0.0445,0.0449,0.0456,0.0451,0.0458,0.0456,0.0442,0.0445,0.044,0.0439,0.0452,0.0438,0.0439,0.044,0.0484,0.049,0.0494,0,0,0,0,0,0,0.032,0.0364,0.0373,0.0397,0.0421,0.0445,0.0452,0.0459,0.0465,0.046,0.0453,0.0451,0.046,0.0449,0.0444,0.0458,0.0438,0.0439,0.0472,0.0477,0.0481,0.0481,0.0424,0,0,0,0,0,0.032,0.0343,0.0381,0.0398,0.0412,0.0432,0.0443,0.0452,0.0464,0.0466,0.0466,0.0463,0.0465,0.0465,0.0464,0.0474,0.046,0.048,0.0484,0.0488,0.0487,0.0478,0.0481,0.0445,0.0445,0.0445,0,0,0.0311,0.0339,0.035,0.0393,0.041,0.0437,0.0437,0.0457,0.0478,0.0462,0.0482,0.0478,0.0471,0.0484,0.0486,0.0476,0.0494,0.049,0.0493,0.049,0.0479,0.0483,0.0486,0.0446,0.0446,0.0446,0,0,0.0308,0.0334,0.0354,0.0379,0.0414,0.0435,0.0443,0.0474,0.0485,0.0508,0.0501,0.0507,0.0512,0.0513,0.0513,0.0539,0.0516,0.0536,0.0559,0.0551,0.0554,0.0556,0.0554,0.0556,0.0539,0.0539,0.0539,0,0.0291,0.0331,0.036,0.0388,0.0411,0.0436,0.0462,0.0483,0.051,0.0523,0.0517,0.0532,0.0527,0.0543,0.0553,0.0549,0.054,0.0543,0.0557,0.0559,0.056,0.0557,0.0559,0.0541,0.0541,0.0541,0.054,0,0.0309,0.034,0.0354,0.0403,0.043,0.0456,0.0495,0.0518,0.0535,0.0554,0.0575,0.0574,0.0581,0.0583,0.0578,0.059,0.0579,0.0564,0.0545,0.0567,0.0562,0.0563,0.0545,0.0544,0.0543,0.0542,0,0,0.027,0.0352,0.0355,0.0385,0.0442,0.0466,0.0506,0.0551,0.0574,0.0596,0.0623,0.0632,0.063,0.0629,0.0623,0.0619,0.0629,0.0599,0.0597,0.0599,0.0614,0.0587,0.0584,0.0614,0.0614,0.0614,0.0611,0,0.0273,0.0332,0.0372,0.0421,0.0455,0.0497,0.0533,0.0573,0.0603,0.0635,0.0643,0.066,0.0649,0.0652,0.0649,0.0636,0.063,0.0631,0.0591,0.0589,0.0563,0.0584,0.0593,0.0588,0.0611,0.0611,0.0611,0,0.0275,0.0319,0.0372,0.0444,0.0461,0.049,0.0552,0.0589,0.0639,0.066,0.0681,0.0689,0.0703,0.068,0.067,0.0671,0.0645,0.0629,0.0628,0.0583,0.0562,0.0567,0.0588,0.0567,0.0612,0.0612,0.0612,0,0.0239,0.0315,0.036,0.0384,0.0467,0.0492,0.0532,0.0589,0.0627,0.0673,0.0698,0.0713,0.0724,0.07,0.0682,0.0673,0.0662,0.0642,0.0593,0.0591,0.058,0.0577,0.0575,0.062,0.062,0.062,0.062,0,0.0233,0.0265,0.0346,0.037,0.0416,0.0475,0.0524,0.0564,0.0626,0.0673,0.0703,0.0737,0.0727,0.0728,0.0695,0.0655,0.0671,0.06,0.0587,0.0598,0.0596,0.056,0.0508,0.062,0.062,0.062,0.062,0,0.0194,0.0248,0.0298,0.0379,0.0402,0.0433,0.0521,0.0559,0.0617,0.0678,0.0695,0.0755,0.0762,0.0747,0.0717,0.0671,0.0609,0.0607,0.0625,0.0614,0.0532,0.0481,0.0374,0.0446,0.055,0.0549,0.0549,0,0.0188,0.021,0.0289,0.0318,0.0355,0.0414,0.0457,0.0538,0.0586,0.0691,0.0717,0.0758,0.0801,0.076,0.0691,0.0633,0.0596,0.0576,0.0551,0.0531,0.0466,0.0399,0.0466,0.0564,0.0564,0.0564,0.0563,0,0.0172,0.0194,0.0238,0.0294,0.0339,0.0404,0.0472,0.0514,0.0616,0.0681,0.0767,0.0815,0.0797,0.0777,0.0696,0.0631,0.0552,0.0564,0.0544,0.0472,0.0398,0.0462,0.0568,0.056,0.0561,0.0561,0.0561,0.0561,0.0153,0.0174,0.0228,0.0275,0.0332,0.0401,0.0465,0.0549,0.0642,0.0797,0.0814,0.095,0.0899,0.0803,0.0689,0.0526,0.0514,0.0486,0.0426,0.0363,0.0421,0.0516,0.0489,0.0489,0.0488,0.0488,0.0488,0,0.0135,0.0168,0.0213,0.0286,0.0342,0.0381,0.0486,0.0579,0.0702,0.0868,0.098,0.1101,0.0981,0.0854,0.0604,0.045,0.0421,0.0372,0.0308,0.0394,0.0488,0.0482,0.0452,0.0452,0.0452,0.0452,0.0452,0.0452,0.0133,0.0164,0.019,0.0278,0.0336,0.0446,0.0515,0.0664,0.0817,0.1084,0.1259,0.1375,0.1287,0.075,0.0429,0.0349,0.031,0.0176,0.0239,0.0306,0.0314,0.0321,0.0308,0.0242,0.0242,0.0219,0.0218,0.0218]}],[{"header":{"parameterUnit":"m.s-1","parameterCategory":2,"la1":30.2991,"la2":30.254,"lo1":-89.0895,"lo2":-89.0444,"dy":0.0017,"dx":0.0017,"nx":28,"ny":28,"refTime":"2023-05-28T21:00:00:Z","depth":"2","parameterNumber":2,"parameterNumberName":"U-component_of_CURRENTS"},"data":[0,0,0,0,0,0,0,0,0,0,0,0,0,0,0,0,0,0,0,0,0,0,0,0,0,0,0,0,0,0,0,0,0,0,0,0,0,0,0,0,0,0,0,0,0,0,0,0,0,0,0,0,0,0,0,0,0,0,-0.0258,-0.0258,0,-0.0272,-0.0273,-0.0273,-0.0225,-0.0224,-0.0222,-0.0221,-0.0217,-0.0218,-0.022,0,0,0,0,0,0,0,0,0,0,0,0,0,-0.0255,-0.0255,-0.0258,-0.0258,-0.0258,-0.0272,-0.0273,-0.0273,-0.0226,-0.0224,-0.0222,-0.022,-0.0217,-0.0218,-0.022,0,0,0,0,0,0,0,0,0,0,0,0,0,-0.0263,-0.0255,-0.0258,-0.0235,-0.0233,-0.0272,-0.0273,-0.0273,-0.0226,-0.0224,-0.0221,-0.0219,-0.0216,-0.0218,-0.022,-0.0278,0,0,-0.0226,-0.0227,0,0,0,0,0,0,0,0,-0.0262,-0.0263,-0.0239,-0.0237,-0.0235,-0.0244,-0.027,-0.0274,-0.0226,-0.023,-0.0221,-0.0218,-0.0225,-0.0227,-0.0236,-0.0278,-0.0278,-0.0226,-0.0228,-0.0228,-0.0229,0,0,0,0,0,0,0,-0.0262,-0.0262,-0.0265,-0.0239,-0.0237,-0.0247,-0.0245,-0.0271,-0.0241,-0.0229,-0.0226,-0.0227,-0.0224,-0.0234,-0.0236,-0.0278,-0.0226,-0.0228,-0.0229,-0.023,-0.0258,-0.0257,0,0,0,0,0,0,-0.0257,-0.0262,-0.0264,-0.0265,-0.0242,-0.0249,-0.0247,-0.0244,-0.0241,-0.0238,-0.0228,-0.0224,-0.0232,-0.0233,-0.0235,-0.0192,-0.0228,-0.023,-0.0231,-0.0258,-0.0257,-0.0257,0,0,0,0,0,0,-0.0257,-0.0257,-0.0264,-0.0263,-0.0264,-0.0251,-0.0249,-0.0246,-0.0209,-0.024,-0.0236,-0.0189,-0.023,-0.0232,-0.0219,-0.0195,-0.0231,-0.0233,-0.0259,-0.0258,-0.0257,-0.0177,0,0,0,0,0,0,-0.0257,-0.0257,-0.0243,-0.0263,-0.0264,-0.0259,-0.0251,-0.0247,-0.0215,-0.0208,-0.0207,-0.0206,-0.0229,-0.0216,-0.0221,-0.0199,-0.0235,-0.0259,-0.0258,-0.0257,-0.018,-0.0174,-0.0168,0,0,0,0,0,-0.0257,-0.0251,-0.0242,-0.0242,-0.0248,-0.0258,-0.026,-0.0244,-0.0215,-0.0201,-0.0192,-0.0204,-0.0214,-0.0217,-0.0224,-0.0201,-0.026,-0.0258,-0.0257,-0.0183,-0.0175,-0.0168,0,0,0,0,0,0,-0.0245,-0.0246,-0.0237,-0.0231,-0.023,-0.0249,-0.0231,-0.0221,-0.0205,-0.0179,-0.0201,-0.0202,-0.0183,-0.0207,-0.021,-0.0208,-0.0239,-0.0239,-0.018,-0.0173,-0.0166,-0.0141,-0.0236,0,0,0,0,0,-0.0237,-0.0227,-0.0234,-0.0226,-0.0216,-0.0214,-0.0209,-0.0195,-0.0192,-0.0178,-0.0175,-0.0178,-0.0196,-0.0191,-0.021,-0.0209,-0.0216,-0.02,-0.0193,-0.0188,-0.0172,-0.0183,-0.0176,-0.0253,-0.0253,-0.0254,0,0,-0.0234,-0.0231,-0.0226,-0.0222,-0.0213,-0.0203,-0.0203,-0.0177,-0.0164,-0.0185,-0.0144,-0.0154,-0.0192,-0.0188,-0.0182,-0.0195,-0.0164,-0.0186,-0.0181,-0.0169,-0.0181,-0.0173,-0.0166,-0.0253,-0.0253,-0.0253,0,0,-0.0227,-0.0209,-0.0195,-0.0186,-0.0163,-0.0168,-0.0148,-0.0134,-0.0114,-0.0097,-0.0106,-0.0095,-0.0113,-0.0133,-0.0151,-0.0126,-0.0134,-0.0125,-0.0068,-0.0078,-0.0072,-0.0066,-0.0036,-0.0029,-0.0119,-0.0118,-0.0118,0,-0.0215,-0.0201,-0.0194,-0.0173,-0.016,-0.0143,-0.0122,-0.0115,-0.0096,-0.0079,-0.0067,-0.0072,-0.0094,-0.0104,-0.0085,-0.011,-0.0098,-0.0091,-0.0068,-0.0063,-0.0059,-0.003,-0.0023,-0.0114,-0.0115,-0.0115,-0.0116,0,-0.0204,-0.0177,-0.0163,-0.0132,-0.0121,-0.0096,-0.0085,-0.0051,-0.002,-0.0016,0.0013,-0.0012,-0.0007,-0.002,-0.0041,-0.002,-0.0014,-0.006,-0.0082,-0.0045,-0.0018,-0.0011,-0.0109,-0.011,-0.0111,-0.0112,0,0,-0.0207,-0.0164,-0.015,-0.0126,-0.0089,-0.0081,-0.0044,-0.0022,0.0017,0.004,0.0078,0.0058,0.0082,0.0063,0.0043,0.0039,0.0089,0.0024,0.0022,0.0066,0.0113,0.0169,0.0181,0.0055,0.0056,0.0057,0.0131,0,-0.0189,-0.015,-0.0132,-0.0088,-0.0065,-0.0033,-0.0008,0.0022,0.0053,0.0095,0.009,0.0116,0.0099,0.0124,0.012,0.0091,0.0106,0.0076,0.0062,0.0062,0.0116,0.019,0.0071,0.0131,0.0137,0.0138,0.0138,0,-0.0173,-0.0151,-0.0105,-0.0057,-0.004,-0.001,0.0053,0.0079,0.0129,0.0161,0.0201,0.0206,0.0231,0.0198,0.0202,0.0193,0.0178,0.0149,0.015,0.0179,0.013,0.0088,0.0142,0.0149,0.0148,0.0147,0.0146,0,-0.0179,-0.0126,-0.0089,-0.007,-0.002,0.0021,0.0058,0.0113,0.0149,0.0223,0.027,0.0288,0.0325,0.0297,0.0288,0.0252,0.0288,0.0211,0.0247,0.0251,0.0136,0.0129,0.0212,0.0212,0.0212,0.0212,0.0212,0,-0.0172,-0.0136,-0.0079,-0.0057,-0.0005,0.0039,0.0108,0.0153,0.0225,0.0287,0.0321,0.0379,0.0354,0.0377,0.0333,0.0352,0.0332,0.0293,0.028,0.0165,0.016,0.0146,0.0138,0.0215,0.0214,0.0213,0.0213,0,-0.018,-0.014,-0.0098,-0.0032,-0.0003,0.0041,0.0135,0.0179,0.0266,0.0353,0.039,0.0464,0.0532,0.0511,0.0486,0.0434,0.0411,0.0413,0.0317,0.0293,0.0368,0.0362,0.0457,0.046,0.0462,0.0464,0.0466,0,-0.018,-0.0157,-0.0087,-0.0057,-0.0017,0.0055,0.0105,0.0194,0.0251,0.0408,0.0448,0.0564,0.0638,0.0662,0.0589,0.0559,0.0534,0.0432,0.0326,0.0419,0.0396,0.0386,0.0378,0.0205,0.0205,0.0204,0.0204,0,-0.0196,-0.0161,-0.014,-0.0076,-0.0016,0.0041,0.0131,0.0184,0.0312,0.0411,0.0562,0.0641,0.0703,0.065,0.0633,0.0564,0.0427,0.0425,0.0529,0.018,0.0192,0.0166,0.0163,0.0199,0.0199,0.02,0.02,0.02,-0.0206,-0.0206,-0.0166,-0.0106,-0.0047,0.0031,0.0097,0.0201,0.0317,0.046,0.0536,0.0614,0.0542,0.0488,0.0472,0.0463,0.0479,0.036,0.0356,0.0354,0.033,0.0347,0.0381,0.0382,0.0384,0.0385,0.0386,0,-0.0252,-0.023,-0.0193,-0.0129,-0.0078,-0.0007,0.0108,0.0171,0.032,0.0418,0.0515,0.0366,0.0326,0.035,0.0332,0.0308,0.0227,0.028,0.0148,0.0153,0.0156,0.0118,0.0115,0.0115,0.0115,0.0115,0,0,-0.0278,-0.0272,-0.0258,-0.0179,-0.0104,-0.0001,0.0082,0.0187,0.0264,0.0345,0.037,0.0257,0.0295,0.016,0.013,0.0181,0.0167,0.0148,0.0352,0.0202,0.0207,0.0177,0.0121,0,0,0,0,0]},{"header":{"parameterUnit":"m.s-1","parameterCategory":2,"la1":30.2991,"la2":30.254,"lo1":-89.0895,"lo2":-89.0444,"dy":0.0017,"dx":0.0017,"nx":28,"ny":28,"refTime":"2023-05-28T21:00:00:Z","depth":"2","parameterNumber":3,"parameterNumberName":"V-component_of_CURRENTS"},"data":[0,0,0,0,0,0,0,0,0,0,0,0,0,0,0,0,0,0,0,0,0,0,0,0,0,0,0,0,0,0,0,0,0,0,0,0,0,0,0,0,0,0,0,0,0,0,0,0,0,0,0,0,0,0,0,0,0,0,-0.0066,-0.0066,0,-0.0105,-0.0105,-0.0106,-0.0147,-0.0148,-0.0148,-0.0149,-0.0218,-0.0219,-0.022,0,0,0,0,0,0,0,0,0,0,0,0,0,-0.0057,-0.0057,-0.0066,-0.0066,-0.0067,-0.0105,-0.0105,-0.0106,-0.0147,-0.0148,-0.0148,-0.0149,-0.0217,-0.0219,-0.022,0,0,0,0,0,0,0,0,0,0,0,0,0,-0.0074,-0.0057,-0.0066,-0.0093,-0.0096,-0.0105,-0.0105,-0.0106,-0.0147,-0.0148,-0.0149,-0.015,-0.0217,-0.0219,-0.022,-0.021,0,0,-0.0226,-0.0227,0,0,0,0,0,0,0,0,-0.0073,-0.0074,-0.0088,-0.0091,-0.0094,-0.0123,-0.0128,-0.0143,-0.0146,-0.0126,-0.0149,-0.015,-0.0189,-0.0193,-0.0196,-0.0214,-0.0217,-0.0226,-0.0227,-0.0228,-0.0228,0,0,0,0,0,0,0,-0.0072,-0.0073,-0.008,-0.0089,-0.0093,-0.0114,-0.0117,-0.0131,-0.0151,-0.0128,-0.0131,-0.0137,-0.0191,-0.0194,-0.0198,-0.0218,-0.0226,-0.0227,-0.0229,-0.0229,-0.0276,-0.0276,0,0,0,0,0,0,-0.0066,-0.0071,-0.0079,-0.0081,-0.0087,-0.0113,-0.0117,-0.0112,-0.015,-0.0157,-0.0136,-0.0139,-0.019,-0.0196,-0.0201,-0.0216,-0.0228,-0.0229,-0.023,-0.0276,-0.0276,-0.0277,0,0,0,0,0,0,-0.0066,-0.0066,-0.0077,-0.0079,-0.0082,-0.0112,-0.0107,-0.0112,-0.0129,-0.0156,-0.0164,-0.0149,-0.0191,-0.0198,-0.0225,-0.0218,-0.023,-0.0232,-0.0276,-0.0276,-0.0276,-0.0231,0,0,0,0,0,0,-0.0065,-0.0065,-0.0068,-0.0078,-0.0082,-0.0083,-0.0106,-0.0112,-0.0131,-0.0135,-0.017,-0.0176,-0.0193,-0.0222,-0.0226,-0.0221,-0.0233,-0.0276,-0.0276,-0.0276,-0.0232,-0.0229,-0.0227,0,0,0,0,0,-0.0064,-0.0057,-0.0067,-0.0069,-0.0081,-0.0083,-0.0086,-0.0111,-0.013,-0.0131,-0.0162,-0.0176,-0.0227,-0.0223,-0.0229,-0.0223,-0.0275,-0.0276,-0.0276,-0.0233,-0.023,-0.0227,0,0,0,0,0,0,-0.0055,-0.0061,-0.0072,-0.0068,-0.0077,-0.0091,-0.0099,-0.0114,-0.0137,-0.0148,-0.0177,-0.0185,-0.0206,-0.0224,-0.0219,-0.024,-0.0254,-0.0255,-0.0219,-0.0216,-0.0214,-0.0202,-0.0235,0,0,0,0,0,-0.0053,-0.0049,-0.006,-0.0057,-0.0064,-0.0083,-0.0092,-0.0103,-0.0123,-0.0135,-0.0159,-0.0187,-0.0208,-0.0221,-0.024,-0.025,-0.0254,-0.0252,-0.025,-0.0247,-0.0242,-0.0246,-0.0242,-0.0278,-0.0278,-0.0278,0,0,-0.0046,-0.0052,-0.0049,-0.0055,-0.0068,-0.0063,-0.0091,-0.0099,-0.0096,-0.0138,-0.015,-0.018,-0.021,-0.0222,-0.0232,-0.0238,-0.0238,-0.0248,-0.0245,-0.0242,-0.0245,-0.0242,-0.0239,-0.0278,-0.0278,-0.0278,0,0,-0.0025,-0.0039,-0.0028,-0.0034,-0.0049,-0.0057,-0.006,-0.0076,-0.0089,-0.01,-0.0132,-0.0158,-0.0188,-0.0204,-0.0218,-0.0214,-0.0225,-0.0226,-0.0201,-0.0204,-0.0201,-0.0198,-0.0185,-0.0182,-0.0224,-0.0224,-0.0224,0,-0.0022,-0.0006,-0.0026,-0.0019,-0.0019,-0.0052,-0.0037,-0.005,-0.0072,-0.0079,-0.0101,-0.0147,-0.0175,-0.0187,-0.0191,-0.0206,-0.0208,-0.0206,-0.0199,-0.0196,-0.0194,-0.0182,-0.0179,-0.0221,-0.0222,-0.0222,-0.0222,0,0.0012,0.0018,0.0022,0.0025,0.0022,0.0028,0.0011,0.0002,-0.0022,-0.0035,-0.006,-0.01,-0.0126,-0.0141,-0.0167,-0.0168,-0.0174,-0.0194,-0.0201,-0.0187,-0.0176,-0.0173,-0.0218,-0.0219,-0.022,-0.022,0,0,0.0036,0.0047,0.0045,0.0058,0.0046,0.0053,0.0052,0.0048,0.0051,0.0014,0.0016,-0.0033,-0.0063,-0.0082,-0.0118,-0.0129,-0.0115,-0.0155,-0.0157,-0.0132,-0.011,-0.0092,-0.0088,-0.0136,-0.0136,-0.0135,-0.0103,0,0.0066,0.0098,0.0094,0.0124,0.0139,0.0115,0.0124,0.0113,0.0092,0.0085,0.0033,0.0019,-0.0038,-0.0048,-0.0071,-0.0112,-0.0109,-0.0121,-0.0137,-0.0137,-0.0113,-0.0084,-0.0101,-0.0072,-0.01,-0.01,-0.01,0,0.01,0.0118,0.0155,0.0181,0.0185,0.0197,0.0203,0.021,0.0185,0.0168,0.0134,0.0093,0.0057,0.0015,-0.0037,-0.0045,-0.0069,-0.0096,-0.0096,-0.0093,-0.0114,-0.0094,-0.0066,-0.0095,-0.0095,-0.0096,-0.0096,0,0.0132,0.0162,0.0195,0.0202,0.0222,0.0232,0.0243,0.0231,0.0245,0.0224,0.0227,0.0167,0.0146,0.0093,0.0014,-0.0005,-0.0032,-0.006,-0.0057,-0.0056,-0.0079,-0.008,-0.0067,-0.0067,-0.0067,-0.0067,-0.0067,0,0.0173,0.0198,0.0213,0.023,0.0275,0.0273,0.0313,0.031,0.0313,0.0338,0.0273,0.0272,0.0163,0.0121,0.0051,0.0005,0.0001,-0.0039,-0.0044,-0.0063,-0.0063,-0.0099,-0.0104,-0.0066,-0.0066,-0.0066,-0.0067,0,0.021,0.0217,0.0257,0.028,0.0293,0.0324,0.0367,0.04,0.0391,0.0421,0.0419,0.0356,0.0296,0.0199,0.0119,0.0068,0.0016,0.0008,0.0,-0.0006,-0.0011,-0.0013,0.0025,0.0026,0.0027,0.0028,0.0028,0,0.0236,0.0257,0.0292,0.0324,0.0338,0.0385,0.0426,0.0438,0.0468,0.0472,0.0489,0.0439,0.0406,0.0295,0.0206,0.0125,0.0054,0.0044,0.0007,0.0009,-0.0,-0.0004,-0.0007,-0.0003,-0.0003,-0.0003,-0.0003,0,0.0283,0.0285,0.032,0.038,0.0427,0.0486,0.0534,0.0569,0.0586,0.0615,0.0621,0.0598,0.0494,0.0364,0.0245,0.0191,0.005,0.0049,0.0051,-0.0022,-0.0015,-0.0025,-0.0028,-0.0001,-0.0001,-0.0001,-0.0001,-0.0001,0.0312,0.0345,0.0383,0.0446,0.0503,0.0572,0.0638,0.0696,0.0761,0.0795,0.0722,0.0646,0.0411,0.0253,0.019,0.015,0.015,0.0044,0.0042,0.004,0.0033,0.0041,0.0066,0.0066,0.0066,0.0066,0.0066,0,0.035,0.0384,0.045,0.0527,0.0607,0.061,0.0706,0.0789,0.0895,0.0847,0.0845,0.0526,0.0384,0.0191,0.0163,0.012,0.013,0.006,0.0026,0.0024,0.0022,0.0013,0.0041,0.0042,0.0042,0.0042,0,0,0.0379,0.0432,0.0469,0.0596,0.0652,0.0761,0.082,0.0953,0.0961,0.0905,0.0766,0.0577,0.0304,0.0185,0.0103,0.0105,0.011,0.0123,0.0146,0.0119,0.012,0.0008,-0.0008,0,0,0,0,0]}],[{"header":{"parameterUnit":"m.s-1","parameterCategory":2,"la1":30.2991,"la2":30.254,"lo1":-89.0895,"lo2":-89.0444,"dy":0.0017,"dx":0.0017,"nx":28,"ny":28,"refTime":"2023-05-28T21:00:00:Z","depth":"4","parameterNumber":2,"parameterNumberName":"U-component_of_CURRENTS"},"data":[0,0,0,0,0,0,0,0,0,0,0,0,0,0,0,0,0,0,0,0,0,0,0,0,0,0,0,0,0,0,0,0,0,0,0,0,0,0,0,0,0,0,0,0,0,0,0,0,0,0,0,0,0,0,0,0,0,0,-0.048,-0.048,0,-0.0491,-0.0491,-0.0491,-0.0499,-0.05,-0.05,-0.05,-0.0511,-0.0511,-0.0512,0,0,0,0,0,0,0,0,0,0,0,0,0,-0.0459,-0.0459,-0.048,-0.048,-0.0481,-0.0491,-0.0491,-0.0491,-0.0499,-0.05,-0.05,-0.05,-0.0511,-0.0511,-0.0512,0,0,0,0,0,0,0,0,0,0,0,0,0,-0.0467,-0.0459,-0.048,-0.0487,-0.0488,-0.0491,-0.0491,-0.0491,-0.0499,-0.05,-0.05,-0.05,-0.0511,-0.0511,-0.0512,-0.0507,0,0,-0.0512,-0.0512,0,0,0,0,0,0,0,0,-0.0467,-0.0468,-0.0486,-0.0486,-0.0487,-0.0495,-0.0488,-0.0497,-0.0499,-0.0494,-0.05,-0.05,-0.0507,-0.0507,-0.0507,-0.0508,-0.0508,-0.0512,-0.0512,-0.0512,-0.0512,0,0,0,0,0,0,0,-0.0466,-0.0468,-0.0483,-0.0486,-0.0487,-0.0487,-0.0489,-0.049,-0.0497,-0.0494,-0.0495,-0.0498,-0.0507,-0.0507,-0.0507,-0.0508,-0.0512,-0.0512,-0.0513,-0.0513,-0.0647,-0.0651,0,0,0,0,0,0,-0.0468,-0.0467,-0.0483,-0.0484,-0.0479,-0.0487,-0.0489,-0.0491,-0.0497,-0.0499,-0.0498,-0.0499,-0.0506,-0.0507,-0.0508,-0.062,-0.0512,-0.0513,-0.0513,-0.0644,-0.0648,-0.0652,0,0,0,0,0,0,-0.0467,-0.0469,-0.0482,-0.0477,-0.0479,-0.0488,-0.049,-0.0492,-0.0505,-0.0501,-0.0502,-0.0512,-0.0506,-0.0507,-0.052,-0.0616,-0.0513,-0.0513,-0.064,-0.0645,-0.065,-0.077,0,0,0,0,0,0,-0.0466,-0.0469,-0.0478,-0.0477,-0.0479,-0.0492,-0.049,-0.0492,-0.0506,-0.0508,-0.0513,-0.0513,-0.0507,-0.052,-0.052,-0.0615,-0.0513,-0.0635,-0.0642,-0.0648,-0.0762,-0.0779,-0.0793,0,0,0,0,0,-0.0466,-0.0474,-0.0478,-0.048,-0.0489,-0.0492,-0.0493,-0.05,-0.0507,-0.0513,-0.0519,-0.0514,-0.0564,-0.052,-0.0521,-0.0618,-0.0632,-0.064,-0.0648,-0.0755,-0.0775,-0.0793,0,0,0,0,0,0,-0.0467,-0.0475,-0.048,-0.049,-0.0496,-0.0494,-0.0503,-0.0509,-0.0518,-0.0526,-0.052,-0.0521,-0.0582,-0.0572,-0.0525,-0.068,-0.0613,-0.0621,-0.0695,-0.0714,-0.073,-0.0694,-0.0513,0,0,0,0,0,-0.0472,-0.0483,-0.0487,-0.0496,-0.0501,-0.0506,-0.0512,-0.0518,-0.0523,-0.0529,-0.0535,-0.0564,-0.0613,-0.0635,-0.0655,-0.0712,-0.0655,-0.0788,-0.0804,-0.0817,-0.0792,-0.0766,-0.0775,-0.0677,-0.0677,-0.0677,0,0,-0.0475,-0.0482,-0.0488,-0.0498,-0.0503,-0.051,-0.051,-0.0525,-0.0546,-0.0528,-0.0561,-0.0601,-0.0635,-0.0713,-0.0745,-0.0718,-0.0826,-0.0827,-0.0838,-0.0804,-0.0775,-0.0783,-0.0791,-0.0683,-0.0682,-0.0681,0,0,-0.0482,-0.0493,-0.0504,-0.0512,-0.0527,-0.0527,-0.0535,-0.0547,-0.057,-0.0606,-0.0627,-0.0703,-0.0751,-0.0807,-0.0844,-0.0952,-0.09,-0.0999,-0.1059,-0.1037,-0.1043,-0.1047,-0.1016,-0.1016,-0.1019,-0.102,-0.102,0,-0.0485,-0.05,-0.0507,-0.052,-0.0531,-0.0535,-0.0549,-0.0569,-0.0589,-0.0635,-0.0631,-0.077,-0.08,-0.0922,-0.098,-0.0989,-0.0949,-0.0985,-0.1052,-0.1055,-0.1058,-0.1024,-0.1023,-0.1026,-0.1026,-0.1025,-0.1024,0,-0.0494,-0.0516,-0.0523,-0.0539,-0.0551,-0.0564,-0.0588,-0.0613,-0.0652,-0.0705,-0.0826,-0.0872,-0.096,-0.1026,-0.1036,-0.1126,-0.1084,-0.1062,-0.0992,-0.1074,-0.1035,-0.1031,-0.1036,-0.1034,-0.1032,-0.103,0,0,-0.0478,-0.0519,-0.0525,-0.054,-0.0567,-0.057,-0.0616,-0.0675,-0.0737,-0.0806,-0.0897,-0.1034,-0.1088,-0.1129,-0.1182,-0.1187,-0.1204,-0.1143,-0.1138,-0.1089,-0.1138,-0.1016,-0.1,-0.1184,-0.1184,-0.1184,-0.1112,0,-0.0483,-0.0506,-0.0534,-0.0559,-0.057,-0.0602,-0.0646,-0.0712,-0.0793,-0.0878,-0.0989,-0.1095,-0.1123,-0.1193,-0.1208,-0.1191,-0.1195,-0.1223,-0.1083,-0.1078,-0.0941,-0.0992,-0.1183,-0.1109,-0.1108,-0.1107,-0.1107,0,-0.0485,-0.05,-0.053,-0.0578,-0.0589,-0.0619,-0.0699,-0.0759,-0.0896,-0.0976,-0.1106,-0.1156,-0.1236,-0.1222,-0.1213,-0.1224,-0.1188,-0.1163,-0.1159,-0.0985,-0.0948,-0.1005,-0.1099,-0.11,-0.11,-0.1101,-0.1101,0,-0.0456,-0.05,-0.0522,-0.0536,-0.059,-0.0636,-0.0692,-0.0819,-0.0894,-0.1059,-0.1111,-0.1212,-0.1243,-0.1215,-0.1169,-0.1185,-0.11,-0.1113,-0.0973,-0.0964,-0.1038,-0.1033,-0.1079,-0.1079,-0.1079,-0.1079,-0.1079,0,-0.0445,-0.0461,-0.052,-0.0532,-0.0579,-0.0653,-0.0748,-0.0839,-0.0982,-0.1055,-0.1178,-0.1175,-0.1229,-0.1182,-0.1153,-0.1031,-0.1083,-0.0964,-0.0931,-0.1098,-0.1101,-0.1036,-0.1032,-0.1076,-0.1077,-0.1077,-0.1078,0,-0.0412,-0.0445,-0.0472,-0.0541,-0.0572,-0.0629,-0.0758,-0.0821,-0.0979,-0.1059,-0.1096,-0.1145,-0.1046,-0.1062,-0.0993,-0.0981,-0.0902,-0.085,-0.1017,-0.0997,-0.0791,-0.0795,-0.0687,-0.0682,-0.0678,-0.0675,-0.0672,0,-0.0397,-0.0412,-0.0472,-0.0484,-0.0526,-0.0615,-0.0659,-0.0824,-0.0866,-0.0978,-0.0958,-0.0932,-0.0923,-0.0744,-0.0768,-0.0714,-0.0709,-0.0723,-0.0777,-0.0769,-0.0749,-0.0759,-0.0769,-0.0665,-0.0664,-0.0662,-0.0661,0,-0.0364,-0.0393,-0.0413,-0.0444,-0.0485,-0.0511,-0.0583,-0.0601,-0.0744,-0.086,-0.0793,-0.0775,-0.0655,-0.0599,-0.0578,-0.0539,-0.0752,-0.0679,-0.0689,-0.0739,-0.074,-0.0727,-0.0741,-0.0647,-0.0649,-0.065,-0.0651,0,-0.0349,-0.0346,-0.0371,-0.0403,-0.042,-0.0394,-0.0447,-0.0443,-0.051,-0.0635,-0.056,-0.0551,-0.0575,-0.0497,-0.0448,-0.0428,-0.0428,-0.0487,-0.0507,-0.0524,-0.0507,-0.0487,-0.0269,0,0,0,0,0,-0.0325,-0.0309,-0.0319,-0.0317,-0.0321,-0.0329,-0.0366,-0.041,-0.0501,-0.0426,-0.0523,-0.0403,-0.0364,-0.0335,-0.0272,-0.0351,-0.0424,-0.0283,-0.0501,-0.0564,-0.0581,-0.058,0,0,0,0,0,0,-0.0299,-0.0297,-0.0298,-0.0239,-0.0213,-0.0199,-0.0215,-0.0274,-0.0223,-0.0323,-0.0253,-0.0384,-0.0285,-0.0362,-0.0255,-0.0259,-0.0394,-0.0298,-0.0298,-0.0554,-0.057,-0.0584,-0.0588,0,0,0,0,0]},{"header":{"parameterUnit":"m.s-1","parameterCategory":2,"la1":30.2991,"la2":30.254,"lo1":-89.0895,"lo2":-89.0444,"dy":0.0017,"dx":0.0017,"nx":28,"ny":28,"refTime":"2023-05-28T21:00:00:Z","depth":"4","parameterNumber":3,"parameterNumberName":"V-component_of_CURRENTS"},"data":[0,0,0,0,0,0,0,0,0,0,0,0,0,0,0,0,0,0,0,0,0,0,0,0,0,0,0,0,0,0,0,0,0,0,0,0,0,0,0,0,0,0,0,0,0,0,0,0,0,0,0,0,0,0,0,0,0,0,0.0155,0.0155,0,0.0173,0.0173,0.0173,0.0205,0.0205,0.0206,0.0207,0.021,0.0209,0.0208,0,0,0,0,0,0,0,0,0,0,0,0,0,0.0147,0.0146,0.0155,0.0155,0.0156,0.0173,0.0173,0.0173,0.0204,0.0206,0.0207,0.0207,0.021,0.0209,0.0208,0,0,0,0,0,0,0,0,0,0,0,0,0,0.0154,0.0146,0.0155,0.0175,0.0178,0.0173,0.0173,0.0173,0.0204,0.0206,0.0207,0.0208,0.021,0.0209,0.0208,0.0176,0,0,0.0205,0.0204,0,0,0,0,0,0,0,0,0.0153,0.0153,0.0172,0.0174,0.0176,0.019,0.0171,0.0174,0.0204,0.0191,0.0207,0.0209,0.0202,0.0202,0.0199,0.0176,0.0176,0.0205,0.0204,0.0203,0.0203,0,0,0,0,0,0,0,0.0153,0.0153,0.0159,0.0172,0.0175,0.0184,0.0186,0.0172,0.0187,0.0193,0.0196,0.0201,0.0203,0.02,0.0199,0.0176,0.0205,0.0204,0.0203,0.0203,0.0153,0.0152,0,0,0,0,0,0,0.0154,0.0152,0.0159,0.016,0.0171,0.0183,0.0185,0.0182,0.0188,0.0191,0.02,0.0203,0.0201,0.0201,0.02,0.0193,0.0203,0.0202,0.0202,0.0153,0.0152,0.0152,0,0,0,0,0,0,0.0154,0.0154,0.0158,0.0159,0.0161,0.0182,0.0178,0.0182,0.0187,0.0194,0.0197,0.0203,0.0202,0.0201,0.0181,0.0192,0.0202,0.0201,0.0154,0.0153,0.0152,0.016,0,0,0,0,0,0,0.0153,0.0153,0.0152,0.0159,0.0161,0.0151,0.0178,0.0182,0.0189,0.0193,0.0197,0.0198,0.0203,0.0183,0.018,0.0191,0.02,0.0155,0.0154,0.0152,0.0161,0.016,0.0159,0,0,0,0,0,0.0152,0.0141,0.0152,0.0153,0.0158,0.015,0.0151,0.0169,0.0188,0.018,0.0182,0.0198,0.0174,0.018,0.0178,0.0189,0.0156,0.0154,0.0153,0.0161,0.016,0.0159,0,0,0,0,0,0,0.0135,0.0144,0.0155,0.0148,0.0149,0.0156,0.0154,0.0167,0.0162,0.0167,0.0179,0.0178,0.0166,0.0166,0.0174,0.0169,0.0171,0.0169,0.0179,0.0178,0.0177,0.0185,0.0199,0,0,0,0,0,0.0131,0.0127,0.0135,0.0129,0.0129,0.0141,0.0143,0.0152,0.0151,0.0152,0.0155,0.0157,0.0154,0.0158,0.0145,0.0137,0.0149,0.0144,0.0143,0.0142,0.0145,0.0176,0.0179,0.0147,0.0147,0.0147,0,0,0.0121,0.0128,0.0126,0.0125,0.013,0.0109,0.0144,0.014,0.0119,0.015,0.0123,0.0143,0.0146,0.0139,0.0136,0.0146,0.0152,0.014,0.014,0.0144,0.0175,0.0178,0.0181,0.0146,0.0146,0.0146,0,0,0.0097,0.0106,0.0094,0.0088,0.0093,0.0091,0.0089,0.0093,0.0091,0.0069,0.0094,0.0118,0.0099,0.012,0.0126,0.0106,0.0136,0.0112,0.0126,0.0156,0.0159,0.0163,0.0166,0.017,0.0124,0.0124,0.0124,0,0.0088,0.0073,0.0088,0.007,0.0058,0.0079,0.005,0.0042,0.0038,0.003,0.0054,0.0073,0.0088,0.0102,0.0117,0.0106,0.0125,0.0136,0.0157,0.0161,0.0164,0.0167,0.0171,0.0124,0.0124,0.0124,0.0124,0,0.0051,0.0037,0.0026,0.0007,-0.0008,-0.0028,-0.0038,-0.0053,-0.0044,-0.004,-0.0027,0.0017,0.0046,0.0061,0.0091,0.0132,0.0136,0.0146,0.0167,0.0168,0.017,0.0175,0.0124,0.0124,0.0124,0.0124,0,0,0.003,0.0006,0.0001,-0.0018,-0.0043,-0.0062,-0.0106,-0.0134,-0.0156,-0.0124,-0.0124,-0.0072,0.0,0.0014,0.0077,0.0126,0.0178,0.0167,0.0168,0.0181,0.0238,0.0142,0.0138,0.0209,0.021,0.0211,0.0225,0,-0.0003,-0.0045,-0.0056,-0.0113,-0.0138,-0.0151,-0.0197,-0.022,-0.0221,-0.0221,-0.0144,-0.011,-0.0033,0.0028,0.0085,0.0151,0.0192,0.0172,0.0225,0.0225,0.0151,0.014,0.0214,0.0228,0.0229,0.023,0.023,0,-0.0039,-0.0061,-0.0116,-0.017,-0.0185,-0.0225,-0.0283,-0.0314,-0.0317,-0.0299,-0.023,-0.0165,-0.0062,0.0005,0.0125,0.0119,0.0186,0.0233,0.0234,0.0148,0.0138,0.0229,0.0238,0.0237,0.0237,0.0236,0.0236,0,-0.0057,-0.0109,-0.0152,-0.0171,-0.0229,-0.0267,-0.03,-0.0337,-0.036,-0.0314,-0.0293,-0.019,-0.0107,-0.0008,0.0111,0.0139,0.021,0.0247,0.021,0.0203,0.0285,0.0282,0.0318,0.0318,0.0318,0.0318,0.0318,0,-0.0091,-0.013,-0.0163,-0.019,-0.0257,-0.0285,-0.0351,-0.0368,-0.0375,-0.0388,-0.0297,-0.0263,-0.0095,-0.0032,0.0076,0.0136,0.0182,0.0203,0.0201,0.0283,0.028,0.0287,0.0284,0.0318,0.0318,0.0318,0.0318,0,-0.0116,-0.0133,-0.0184,-0.0242,-0.0267,-0.0311,-0.038,-0.0416,-0.0407,-0.041,-0.0373,-0.0302,-0.0218,-0.0113,0.0025,0.0074,0.0147,0.0155,0.0202,0.0203,0.0132,0.0129,0.0125,0.0122,0.0119,0.0117,0.0115,0,-0.0136,-0.0158,-0.0217,-0.025,-0.0283,-0.0345,-0.0393,-0.0419,-0.0434,-0.044,-0.0425,-0.0367,-0.0306,-0.0192,-0.0098,0.0026,0.0057,0.0086,0.0153,0.0114,0.0114,0.0114,0.0115,0.011,0.011,0.0109,0.0108,0,-0.0172,-0.0183,-0.0223,-0.0275,-0.0328,-0.0393,-0.0442,-0.0448,-0.0463,-0.0467,-0.0427,-0.0375,-0.0327,-0.0218,-0.0148,-0.0049,0.0065,0.0059,0.0067,0.0131,0.0097,0.0099,0.0102,0.0099,0.01,0.0101,0.0102,0,-0.0195,-0.0221,-0.0251,-0.0298,-0.0364,-0.0409,-0.0441,-0.0446,-0.0459,-0.0434,-0.0439,-0.038,-0.034,-0.0266,-0.0203,-0.0131,-0.0085,-0.002,-0.0006,0.0005,-0.0041,-0.0102,-0.017,0,0,0,0,0,-0.0215,-0.0231,-0.0273,-0.032,-0.038,-0.041,-0.0462,-0.0477,-0.0483,-0.044,-0.0426,-0.0374,-0.0303,-0.0287,-0.0221,-0.0268,-0.0096,-0.0196,-0.0019,0.0046,0.0057,0.0014,0,0,0,0,0,0,-0.0232,-0.0264,-0.0265,-0.0316,-0.0347,-0.0412,-0.044,-0.045,-0.0409,-0.0404,-0.0349,-0.0355,-0.0273,-0.0312,-0.021,-0.0204,-0.0085,-0.017,-0.0169,0.004,0.005,0.0059,0.0018,0,0,0,0,0]}]]